Regional Weather Roundup
Issued by NWS

Home | Current Version | Previous Version | Graphics & Text | Print | Product List | Glossary On
Versions: 1 2 3 4 5 6 7 8 9 10 11 12 13 14 15 16 17 18 19 20 21 22 23 24 25 26 27 28 29 30 31 32 33 34 35 36 37 38 39 40 41 42 43 44 45 46 47 48 49 50
947
ASUS44 KLIX 012205
RWRLA
LOUISIANA WEATHER ROUNDUP
NATIONAL WEATHER SERVICE NEW ORLEANS LA
400 PM CST SUN MAR 01 2015

NOTE: "FAIR" INDICATES FEW OR NO CLOUDS BELOW 12,000 FEET WITH NO
      SIGNIFICANT WEATHER AND/OR OBSTRUCTIONS TO VISIBILITY.
      SKY/WX - SKY CONDITION AND SIGNIFICANT WEATHER.
      TMP - AIR TEMPERATURE.    DP   - DEWPOINT TEMPERATURE.
      RH  - RELATIVE HUMIDITY.  PRES - PRESSURE.
      HX  - HEAT INDEX.         WCI  - WIND CHILL INDEX.

*  THESE STATIONS ARE NOT NWS OR FAA STATIONS AND ARE NOT UNDER
   NWS QUALITY CONTROL.

LAZ040-048-061>063-065-066-069-012300-
SOUTHEAST LOUISIANA

CITY           SKY/WX    TMP DP  RH WIND       PRES   REMARKS
N.O. AUDUBON     N/A     61  61 100 MISG        N/A
N.O. INTL ARPT CLOUDY    65  59  81 E10       30.24F HAZE
N.O. LAKEFRONT FOG       60  56  86 E10       30.26F VSB 1
SLIDELL        CLOUDY    64  60  87 E5        30.26F
BATON ROUGE    CLOUDY    64  61  90 E10       30.21F
BOOTHVILLE     CLOUDY    71  67  87 E9        30.24F
BELLE CHASSE   CLOUDY    64  58  80 NE9       30.24F FOG
BOGALUSA*        N/A     66  59  79 E3        30.28F
GALLIANO*      CLOUDY    72  66  81 E5        30.24S
NEW ROADS*     CLOUDY    67  62  83 E8        30.21S
GONZALES*      CLOUDY    64  61  93 NE7       30.22F
HAMMOND*       CLOUDY    66  61  82 SE10      30.26F
HOUMA*         PTSUNNY   75  68  78 SE13      30.22F
PORT FOURCHON* CLEAR     68  66  94 E10       30.26S FOG

$$

LAZ041-044-053-054-012300-
SOUTHWEST LOUISIANA

CITY           SKY/WX    TMP DP  RH WIND       PRES   REMARKS
LAKE CHARLES   CLOUDY    66  65  96 SW6       30.18R
LAFAYETTE      CLOUDY    75  66  73 S16G22    30.18F
PATTERSON      CLOUDY    75  66  73 SE14      30.21S
SALT POINT       N/A     74  66  76 SE12      30.18F
NEW IBERIA     PTSUNNY   75  67  76 S22G28    30.19F
CHENAULT AIRPK NOT AVBL

$$

LAZ027-028-012300-
CENTRAL LOUISIANA

CITY           SKY/WX    TMP DP  RH WIND       PRES   REMARKS
FORT POLK      CLOUDY    58  57  97 N6        30.21S FOG
ALEXANDRIA INT LGT RAIN  61  61 100 NW3       30.20S FOG
ALEXANDRIA     HVY RAIN  60  58  92 CALM      30.22R

$$

LAZ001-002-012300-
NORTHWEST LOUISIANA

CITY           SKY/WX    TMP DP  RH WIND       PRES   REMARKS
SHREVEPORT     CLOUDY    42  42 100 N9        30.27S
BARKSDALE AFB  CLOUDY    41  41  99 N6        30.28S
DTN SHREVEPORT LGT RAIN  41  39  93 N6        30.28F FOG

$$

LAZ014-016-012300-
NORTHEAST LOUISIANA

CITY           SKY/WX    TMP DP  RH WIND       PRES   REMARKS
MONROE         HVY RAIN  46  46 100 N6        30.28R FOG
TALLULAH       CLOUDY    58  57  97 N5        30.25F FOG

$$




USA.gov is the U.S. government's official web portal to all federal, state and local government web resources and services.